Simultaneous Nadir Overpasses (SNOs) Predictions

Prediction of SNOs between LANDSAT-8 and NOAA-19 Satellite Orbit:

Table of predicted SNOs for the next 14.0 days since TLE Epoch: 7/24/2021
Index Date (LANDSAT-8) Time (LANDSAT-8) Lat,Lon (LANDSAT-8) SZA (LANDSAT-8 ) Date (NOAA-19) Time (NOAA-19) Lat,Lon (NOAA-19) SZA (NOAA-19 ) Distance(km) Time Diff (sec)
1 07/24/2021 13:05:32 80.47, 15.56 62.07 07/24/2021 13:04:19 80.46, 15.44 62.03 2.25 73
2 07/24/2021 13:55:00 -80.43,-177.13 117.99 07/24/2021 13:55:23 -80.45,-177.13 117.96 2.33 23
3 07/26/2021 19:28:44 80.46, -80.31 62.55 07/26/2021 19:28:27 80.46, -80.48 62.53 3.28 17
4 07/29/2021 01:02:30 -80.45, 16.15 116.96 07/29/2021 01:01:40 -80.46, 16.26 116.95 2.72 50
5 07/29/2021 01:51:56 80.45,-176.20 63.06 07/29/2021 01:52:34 80.45,-176.08 63.08 2.22 38
6 07/31/2021 07:25:42 -80.44, -79.74 116.42 07/31/2021 07:25:48 -80.46, -79.62 116.39 3.30 6
7 08/02/2021 12:59:26 80.45, 16.96 64.17 08/02/2021 12:58:51 80.47, 17.06 64.18 2.57 35
8 08/02/2021 13:48:53 -80.46,-175.34 115.81 08/02/2021 13:49:55 -80.44,-175.20 115.79 3.09 62
9 08/04/2021 18:33:11 -80.47, 113.73 115.21 08/04/2021 18:32:05 -80.48, 113.57 115.24 3.19 66
10 08/04/2021 19:22:37 80.47, -78.68 64.80 08/04/2021 19:22:58 80.45, -78.57 64.81 2.45 21
11 08/07/2021 00:56:23 -80.46, 17.77 114.61 08/07/2021 00:56:12 -80.47, 17.92 114.59 2.94 11



Historial Predications of SNOs between LANDSAT-8 and NOAA-19
